Content
SEND FEEDBACK

Daily
Averages
Monthly
Summary
French Polynesia

HITIAA, FRENCH POLYNESIA


Home > Oceania > French Polynesia
Elevation: 7 feet     Latitude: 17 33S     Longitude: 149 37W

WEATHER
 
SELECT A DAY
Number of Records: 208,734;   Date Range: 6/30/96 - 8/31/14
 
SHARE

PRINT THIS DATA

[ ← Previous Day ]
WEATHER ALMANAC - JUNE 18, 2014
[ Next Day → ]
[ °C ]   °F
Weather ElementAverageHighLow
Temperature77.9 °F86 °F (1:30 pm)69.8 °F (4:00 am)
Dewpoint69.3 °F71.6 °F (11:00 am)66 °F (5:00 am)
Humidity74.2 %88 % (12:30 am)56 % (2:00 pm)
Barometer29.95 in29.99 in (11:00 pm)29.89 in (3:00 am)
Wind Speed4.3 mph11.5 mph (11:00 am)
Weather ElementAverage
Visibility7.9 mi
Wind DirectionSE (138.3 °)

Weather ElementTotal
Precipitation---
Cooling Degree Days12.9 (Base 65)
Growing Degree Days27.9 (Base 50)
Averaged from 55 records on June 18, 2014
WEATHER CONDITIONS BREAKOUT
WIND DIRECTION BREAKOUT
WEATHER BY HOUR - JUNE 18, 2014
[ °C ]   °F
Local TimeTemperatureDewpointHumidityBarometerVisibilityWind DirectionWind SpeedGust SpeedPrecipitationEventsConditions
12:30 AM71.6 °F68.0 °F88 %29.92 in6.2 miSouth (180°)5.8 mphScattered Clouds
1:00 AM73.4 °F68.0 °F83 %29.92 in6.2 miSouth (170°)6.9 mphScattered Clouds
1:30 AM73.4 °F66.2 °F78 %29.92 in6.2 miVariable3.5 mphScattered Clouds
2:00 AM72.0 °F67.0 °F78 %29.92 in12.0 miCalmScattered Clouds
2:00 AM71.6 °F66.2 °F83 %29.92 in6.2 miCalmScattered Clouds
2:30 AM71.6 °F66.2 °F83 %29.92 in6.2 miVariable2.3 mphScattered Clouds
3:00 AM71.6 °F66.2 °F83 %29.89 in6.2 miCalmScattered Clouds
3:30 AM71.6 °F66.2 °F83 %29.89 in6.2 miSE (140°)2.3 mph
4:00 AM69.8 °F66.2 °F88 %29.92 in6.2 miCalm
4:30 AM71.6 °F66.2 °F83 %29.92 in6.2 miSouth (170°)3.5 mph
5:00 AM71.0 °F66.0 °F80 %29.93 in37.0 miEast (80°)5.8 mphClear
5:00 AM71.6 °F66.2 °F83 %29.92 in6.2 miEast (80°)5.8 mph
5:30 AM71.6 °F66.2 °F83 %29.92 in6.2 miEast (100°)3.5 mph
6:00 AM71.6 °F66.2 °F83 %29.95 in6.2 miVariable3.5 mphPartly Cloudy
6:30 AM69.8 °F66.2 °F88 %29.95 in6.2 miSouth (180°)3.5 mphPartly Cloudy
7:00 AM71.6 °F66.2 °F83 %29.95 in6.2 miCalmPartly Cloudy
7:30 AM73.4 °F68.0 °F83 %29.98 in6.2 miCalmPartly Cloudy
8:00 AM77.0 °F69.0 °F68 %29.98 in19.0 miEast (80°)2.3 mphPartly Cloudy
8:00 AM77.0 °F68.0 °F74 %29.98 in6.2 miVariable2.3 mphPartly Cloudy
8:30 AM80.6 °F68.0 °F65 %29.98 in6.2 miVariable1.2 mphPartly Cloudy
9:00 AM80.6 °F68.0 °F65 %29.98 in6.2 miWNW (300°)2.3 mphPartly Cloudy
9:30 AM82.4 °F68.0 °F62 %29.98 in6.2 miNW (310°)3.5 mphPartly Cloudy
10:00 AM82.4 °F69.8 °F66 %29.98 in6.2 miVariable3.5 mphPartly Cloudy
10:30 AM82.4 °F69.8 °F66 %29.95 in6.2 miSW (220°)6.9 mphPartly Cloudy
11:00 AM82.0 °F71.0 °F62 %29.97 in19.0 miSSW (210°)11.5 mphScattered Clouds
11:00 AM82.4 °F71.6 °F70 %29.95 in6.2 miSSW (210°)11.5 mphPartly Cloudy
11:30 AM82.4 °F69.8 °F66 %29.95 in6.2 miSSW (200°)11.5 mphPartly Cloudy
12:00 PM82.4 °F69.8 °F66 %29.95 in6.2 miSSW (200°)8.1 mphPartly Cloudy
12:30 PM84.2 °F71.6 °F66 %29.92 in6.2 miWest (260°)4.6 mphPartly Cloudy
1:00 PM84.2 °F71.6 °F66 %29.92 in6.2 miNW (310°)4.6 mphPartly Cloudy
1:30 PM86.0 °F71.6 °F62 %29.92 in6.2 miNW (320°)6.9 mphPartly Cloudy
2:00 PM84.0 °F71.0 °F56 %29.92 in19.0 miNNW (330°)9.2 mphScattered Clouds
2:00 PM84.2 °F71.6 °F66 %29.92 in6.2 miNNW (330°)9.2 mphPartly Cloudy
2:30 PM84.2 °F71.6 °F66 %29.92 in6.2 miNNW (330°)8.1 mphPartly Cloudy
3:00 PM84.2 °F71.6 °F66 %29.92 in6.2 miNNW (330°)8.1 mphPartly Cloudy
3:30 PM84.2 °F71.6 °F66 %29.92 in6.2 miNW (310°)9.2 mphPartly Cloudy
4:00 PM82.4 °F71.6 °F70 %29.92 in6.2 miNW (310°)8.1 mphPartly Cloudy
4:30 PM82.4 °F71.6 °F70 %29.92 in6.2 miVariable3.5 mphPartly Cloudy
5:00 PM82.0 °F71.0 °F61 %29.94 in12.0 miENE (60°)3.5 mphPartly Cloudy
5:00 PM82.4 °F71.6 °F70 %29.92 in6.2 miENE (60°)3.5 mphScattered Clouds
5:30 PM80.6 °F69.8 °F70 %29.92 in6.2 miVariable2.3 mphScattered Clouds
6:00 PM80.6 °F69.8 °F70 %29.95 in6.2 miCalmMostly Cloudy
6:30 PM80.6 °F71.6 °F74 %29.95 in6.2 miSouth (190°)3.5 mphMostly Cloudy
7:00 PM80.6 °F69.8 °F70 %29.95 in6.2 miWSW (240°)3.5 mphMostly Cloudy
7:30 PM80.6 °F71.6 °F74 %29.98 in6.2 miWest (270°)3.5 mphMostly Cloudy
8:00 PM79.0 °F71.0 °F72 %29.98 in12.0 miNE (50°)3.5 mphMostly Cloudy
8:00 PM78.8 °F71.6 °F78 %29.98 in6.2 miNE (50°)3.5 mphMostly Cloudy
8:30 PM78.8 °F71.6 °F78 %29.98 in6.2 miEast (80°)3.5 mphMostly Cloudy
9:00 PM77.0 °F71.6 °F83 %29.98 in6.2 miVariable2.3 mphScattered Clouds
9:30 PM77.0 °F71.6 °F83 %29.98 in6.2 miCalmScattered Clouds
10:00 PM77.0 °F69.8 °F78 %29.98 in6.2 miSouth (170°)5.8 mphPartly Cloudy
10:30 PM75.2 °F69.8 °F83 %29.98 in6.2 miSouth (170°)3.5 mphPartly Cloudy
11:00 PM76.0 °F70.0 °F75 %29.99 in12.0 miSSE (150°)3.5 mphScattered Clouds
11:00 PM75.2 °F69.8 °F83 %29.98 in6.2 miSSE (150°)3.5 mphPartly Cloudy
11:30 PM75.2 °F69.8 °F83 %29.98 in6.2 miSouth (170°)5.8 mphPartly Cloudy
Hourly data recorded from NTAA, located miles away from Hitiaa, French Polynesia







STORIES FROM OUR PARTNERS